Regional Weather Roundup
Issued by NWS

Home | Current Version | Previous Version | Text Only | Print | Product List | Glossary Off
Versions: 1 2 3 4 5 6 7 8 9 10 11 12 13 14 15 16 17 18 19 20 21 22 23 24 25 26 27 28 29 30 31 32 33 34 35 36 37 38 39 40 41 42 43 44 45 46 47 48 49 50

000
ASUS43 KLSX 301059
RWRMO

WEATHER SUMMARY FOR MISSOURI
NATIONAL WEATHER SERVICE SPRINGFIELD MO
600 AM CDT THU OCT 30 2014

NOTE: "FAIR" INDICATES FEW OR NO CLOUDS BELOW 12,000 FEET WITH NO
       SIGNIFICANT WEATHER AND/OR OBSTRUCTIONS TO VISIBILITY.
       CURRENT SKY AND/OR WEATHER CONDITIONS ARE NOT AVAILABLE FOR
       CHILLICOTHE AND FARMINGTON.

MOZ001>031-035>038-043-044-053-054-301200-
...NORTHERN AND WESTERN MISSOURI...

CITY           SKY/WX    TMP DP  RH WIND       PRES   REMARKS
KANSAS CTY INT MOCLDY    53  39  59 S12       29.98F
KANSAS C DTWN  MOCLDY    49  38  65 S7        30.00F
LEE`S SUMMIT   MOCLDY    49  37  63 S9        30.02F
ST JOSEPH      MOCLDY    47  39  74 SE3       30.01R
KIRKSVILLE     MOCLDY    41  37  86 S6        30.09S

$$
MOZ066>068-077>081-088>096-101>105-301200-
...SOUTHWEST MISSOURI...

CITY           SKY/WX    TMP DP  RH WIND       PRES   REMARKS
SPRINGFIELD    CLEAR     43  35  73 SE12      30.10S
JOPLIN         CLEAR     47  38  71 S9        30.09S

$$
MOZ032>034-039>042-045>050-055>058-069>072-301200-
...CENTRAL MISSOURI...

CITY           SKY/WX    TMP DP  RH WIND       PRES   REMARKS
COLUMBIA       PTCLDY    39  34  82 SE7       30.10S
JEFFERSON CITY PTCLDY    37  35  92 SE5       30.12S
ROLLA          FAIR      41  31  67 SE9       30.10S
SEDALIA        CLEAR     45  33  63 SE7       30.07F
OSAGE BEACH    CLEAR     39  30  70 SE5       30.10S

$$
MOZ051-052-059>065-301200-
...EAST CENTRAL MISSOURI...

CITY           SKY/WX    TMP DP  RH WIND       PRES   REMARKS
ST LOUIS INTL  CLEAR     41  36  82 SE6       30.15S
SPIRIT OF STL  CLEAR     34  33  96 CALM      30.15S
ST CHARLES     CLEAR     37  36  96 E5        30.15S

$$
MOZ072>076-082>087-097>100-106>115-301200-
...SOUTH CENTRAL AND SOUTHEAST MISSOURI...

CITY           SKY/WX    TMP DP  RH WIND       PRES   REMARKS
CAPE GIRARDEAU CLEAR     34  33  96 CALM      30.17S
FARMINGTON     CLEAR     32  30  93 CALM      30.17R
POPLAR BLUFF   CLEAR     36  32  85 CALM      30.16S
WEST PLAINS    CLEAR     37  32  82 CALM      30.15S

$$



USA.gov is the U.S. government's official web portal to all federal, state and local government web resources and services.